GW2670 Weather Reports


Display with metric or nautical units.
time (UTC)temp
F
wind
direction
speed
MPH
gust
MPH
rain 1hr
in
rain 24hr
in
rain mn
in
humidity
%
barometer
mb
20260510005512 50 0 0.0 0.0 0.03 0.11 0.11 93 1012.7
20260510005012 50 0 0.0 0.0 0.03 0.11 0.11 93 1012.9
20260510004530 50 0 0.0 0.0 0.04 0.11 0.11 93 1012.9
20260510004019 50 0 0.0 0.0 0.04 0.11 0.11 92 1013.0
20260510003510 50 0 0.0 0.0 0.04 0.11 0.11 92 1013.1
20260510003028 50 0 0.0 0.0 0.04 0.11 0.11 92 1013.0
20260510002513 50 0 0.0 0.0 0.04 0.11 0.11 92 1013.2
20260510002012 50 0 0.0 1.0 0.05 0.11 0.11 92 1013.3
20260510001530 50 0 0.0 1.0 0.04 0.10 0.10 92 1013.4
20260510001012 50 346 0.0 1.0 0.04 0.09 0.09 91 1013.5
20260510000511 50 0 0.0 1.0 0.04 0.09 0.09 91 1013.5
20260510000030 50 346 0.0 1.0 0.04 0.08 0.08 91 1013.6
20260509235512 50 0 0.0 1.0 0.04 0.08 0.08 90 1013.8
20260509235010 50 0 0.0 1.0 0.04 0.07 0.07 90 1013.8
20260509234529 50 167 0.0 1.0 0.04 0.07 0.07 90 1013.8
20260509234010 50 0 0.0 1.0 0.04 0.07 0.07 90 1013.8
20260509233512 50 0 0.0 0.0 0.03 0.06 0.06 90 1013.9
20260509233028 50 0 0.0 1.0 0.04 0.06 0.06 89 1013.9
20260509232515 51 0 0.0 1.0 0.04 0.06 0.06 89 1013.9
20260509232009 51 151 0.0 1.0 0.04 0.05 0.05 88 1014.0
20260509231530 51 0 0.0 1.0 0.04 0.05 0.05 88 1013.9
20260509231014 51 126 0.0 0.0 0.03 0.04 0.04 88 1014.1
20260509230515 51 0 0.0 0.0 0.04 0.04 0.04 87 1014.1
20260509230030 51 0 0.0 0.0 0.03 0.03 0.03 86 1014.1
20260509225516 51 0 0.0 0.0 0.03 0.03 0.03 86 1014.1
20260509225014 51 0 0.0 0.0 0.03 0.03 0.03 85 1014.1
20260509224537 52 0 0.0 0.0 0.02 0.02 0.02 85 1014.1
20260509224015 52 0 0.0 1.0 0.02 0.02 0.02 83 1014.0
20260509223515 52 159 0.0 4.0 0.02 0.02 0.02 83 1013.9
20260509223031 52 135 1.0 4.0 0.01 0.01 0.01 82 1013.9
20260509222515 53 197 1.0 4.0 0.01 0.01 0.01 81 1013.9
20260509222012 53 196 2.0 5.0 0.00 0.00 0.00 79 1013.8
20260509221532 53 203 3.0 5.0 0.00 0.00 0.00 77 1013.8
20260509221020 54 164 3.0 5.0 0.00 0.00 0.00 74 1013.8
20260509220517 54 213 2.0 4.0 0.00 0.00 0.00 71 1013.7
20260509220031 55 111 1.0 2.0 0.00 0.00 0.00 67 1013.6
20260509215514 56 87 0.0 7.0 0.00 0.00 0.00 63 1013.7
20260509215013 56 99 2.0 9.0 0.00 0.00 0.00 60 1013.8
20260509214533 56 155 3.0 9.0 0.00 0.00 0.00 59 1013.6
20260509214015 56 128 3.0 8.0 0.00 0.00 0.00 58 1013.6
20260509213515 56 165 2.0 8.0 0.00 0.00 0.00 57 1013.6
20260509213032 57 160 2.0 7.0 0.00 0.00 0.00 57 1013.5
20260509212513 57 213 2.0 5.0 0.00 0.00 0.00 57 1013.4
20260509212014 57 252 1.0 2.0 0.00 0.00 0.00 57 1013.4
20260509211540 57 234 0.0 4.0 0.00 0.00 0.00 56 1013.4
20260509211014 57 239 0.0 4.0 0.00 0.00 0.00 56 1013.4
20260509210518 57 102 1.0 4.0 0.00 0.00 0.00 56 1013.3
20260509210032 57 0 0.0 2.0 0.00 0.00 0.00 56 1013.3
20260509205514 57 217 0.0 3.0 0.00 0.00 0.00 55 1013.1
20260509205017 57 0 0.0 3.0 0.00 0.00 0.00 55 1013.0
20260509204530 57 180 1.0 3.0 0.00 0.00 0.00 54 1013.0
20260509204014 57 60 0.0 2.0 0.00 0.00 0.00 54 1012.8
20260509203513 58 169 0.0 3.0 0.00 0.00 0.00 54 1012.8
20260509203030 58 79 1.0 5.0 0.00 0.00 0.00 53 1012.7
20260509202515 58 105 1.0 5.0 0.00 0.00 0.00 53 1012.6
20260509202018 58 113 1.0 5.0 0.00 0.00 0.00 53 1012.5
20260509201530 58 189 2.0 5.0 0.00 0.00 0.00 52 1012.5
20260509201013 58 113 1.0 4.0 0.00 0.00 0.00 52 1012.6
20260509200733 58 126 2.0 4.0 0.00 0.00 0.00 52 1012.6
20260509200030 58 145 2.0 4.0 0.00 0.00 0.00 52 1012.5
20260509195615 58 127 2.0 5.0 0.00 0.00 0.00 51 1012.5
20260509195014 58 175 2.0 5.0 0.00 0.00 0.00 51 1012.5
20260509194530 58 138 2.0 6.0 0.00 0.00 0.00 51 1012.6
20260509194020 58 167 3.0 6.0 0.00 0.00 0.00 51 1012.5
20260509193515 58 201 3.0 5.0 0.00 0.00 0.00 51 1012.6
20260509193032 58 138 2.0 5.0 0.00 0.00 0.00 51 1012.5
20260509192514 58 173 1.0 4.0 0.00 0.00 0.00 51 1012.5
20260509192015 58 200 1.0 4.0 0.00 0.00 0.00 52 1012.5
20260509191534 58 124 1.0 4.0 0.00 0.00 0.00 51 1012.5
20260509191016 59 240 2.0 4.0 0.00 0.00 0.00 50 1012.5
20260509190515 59 0 1.0 4.0 0.00 0.00 0.00 51 1012.5
20260509190030 59 147 1.0 6.0 0.00 0.00 0.00 51 1012.4
20260509185515 59 148 1.0 6.0 0.00 0.00 0.00 51 1012.3
20260509185018 59 195 2.0 9.0 0.00 0.00 0.00 51 1012.3
20260509184534 59 91 1.0 9.0 0.00 0.00 0.00 51 1012.2
20260509184015 59 146 3.0 8.0 0.00 0.00 0.00 51 1012.2
20260509183517 59 0 0.0 4.0 0.00 0.00 0.00 51 1012.2
20260509183030 59 79 1.0 6.0 0.00 0.00 0.00 51 1012.2
20260509182514 59 158 3.0 6.0 0.00 0.00 0.00 50 1012.3
20260509182014 59 148 1.0 6.0 0.00 0.00 0.00 50 1012.3
20260509181532 59 121 1.0 6.0 0.00 0.00 0.00 50 1012.2
20260509181015 60 159 1.0 6.0 0.00 0.00 0.00 50 1012.1
20260509180514 60 232 1.0 6.0 0.00 0.00 0.00 50 1012.1
20260509180030 60 173 2.0 8.0 0.00 0.00 0.00 49 1012.1
20260509175514 60 213 1.0 8.0 0.00 0.00 0.00 49 1012.0
20260509175014 60 194 1.0 5.0 0.00 0.00 0.00 50 1011.9
20260509174530 60 157 1.0 4.0 0.00 0.00 0.00 50 1011.9
20260509174018 60 127 1.0 4.0 0.00 0.00 0.00 50 1011.9
20260509173514 60 120 1.0 6.0 0.00 0.00 0.00 50 1011.9
20260509173030 60 0 2.0 6.0 0.00 0.00 0.00 50 1011.9
20260509172513 60 52 2.0 6.0 0.00 0.00 0.00 51 1011.9
20260509172014 60 139 1.0 4.0 0.00 0.00 0.00 51 1011.9
20260509171533 61 174 0.0 4.0 0.00 0.00 0.00 52 1011.8
20260509171014 61 190 1.0 4.0 0.00 0.00 0.00 52 1011.9
20260509170514 61 37 0.0 6.0 0.00 0.00 0.00 52 1011.8
20260509170030 61 142 1.0 7.0 0.00 0.00 0.00 51 1011.9
20260509165515 61 101 2.0 7.0 0.00 0.00 0.00 50 1011.9
20260509165017 61 139 1.0 5.0 0.00 0.00 0.00 50 1012.0
20260509164531 61 209 1.0 6.0 0.00 0.00 0.00 50 1012.0
20260509164012 61 224 1.0 6.0 0.00 0.00 0.00 51 1012.0
20260509163515 61 215 0.0 5.0 0.00 0.00 0.00 51 1012.0
20260509163032 61 144 0.0 6.0 0.00 0.00 0.00 51 1012.1
20260509162515 61 188 2.0 6.0 0.00 0.00 0.00 50 1012.2
20260509162016 61 0 1.0 6.0 0.00 0.00 0.00 50 1012.4
20260509161530 61 210 2.0 6.0 0.00 0.00 0.00 49 1012.4
20260509161014 62 214 2.0 5.0 0.00 0.00 0.00 50 1012.6
20260509160513 62 0 1.0 5.0 0.00 0.00 0.00 52 1012.7
20260509160032 62 144 1.0 7.0 0.00 0.00 0.00 52 1012.8
20260509155515 62 284 2.0 9.0 0.00 0.00 0.00 50 1012.9
20260509155014 62 184 2.0 9.0 0.00 0.00 0.00 52 1012.9
20260509154529 62 240 0.0 9.0 0.00 0.00 0.00 53 1012.9
20260509154018 62 292 1.0 9.0 0.00 0.00 0.00 54 1013.0
20260509153512 62 171 1.0 10.0 0.00 0.00 0.00 54 1012.9
20260509153028 62 219 1.0 10.0 0.00 0.00 0.00 53 1013.0
20260509152515 63 80 2.0 7.0 0.00 0.00 0.00 52 1012.9
20260509152011 63 90 2.0 7.0 0.00 0.00 0.00 53 1012.9
20260509151530 63 248 1.0 7.0 0.00 0.00 0.00 55 1013.0
20260509151014 63 168 1.0 12.0 0.00 0.00 0.00 53 1012.9
20260509150513 62 207 3.0 12.0 0.00 0.00 0.00 53 1013.0
20260509150028 63 146 4.0 13.0 0.00 0.00 0.00 53 1012.9
20260509145515 63 198 4.0 13.0 0.00 0.00 0.00 53 1013.1
20260509145015 63 202 5.0 10.0 0.00 0.00 0.00 53 1013.1
20260509144536 64 219 1.0 8.0 0.00 0.00 0.00 53 1013.2
20260509144011 64 304 2.0 10.0 0.00 0.00 0.00 53 1013.2
20260509143513 64 126 3.0 12.0 0.00 0.00 0.00 52 1013.2
20260509143030 63 319 4.0 12.0 0.00 0.00 0.00 55 1013.3
20260509142510 64 205 6.0 11.0 0.00 0.00 0.00 52 1013.2
20260509142014 64 272 5.0 12.0 0.00 0.00 0.00 52 1013.1
20260509141531 64 234 5.0 12.0 0.00 0.00 0.00 53 1013.1
20260509141015 64 231 5.0 13.0 0.00 0.00 0.00 53 1013.2
20260509140513 64 213 6.0 13.0 0.00 0.00 0.00 53 1013.3
20260509140028 64 202 6.0 16.0 0.00 0.00 0.00 53 1013.4
20260509135515 65 157 5.0 16.0 0.00 0.00 0.00 54 1013.3
20260509135015 65 76 3.0 11.0 0.00 0.00 0.00 54 1013.4
20260509134530 64 195 5.0 10.0 0.00 0.00 0.00 54 1013.4
20260509134014 64 210 3.0 23.0 0.00 0.00 0.00 57 1013.7
20260509133519 63 126 5.0 23.0 0.00 0.00 0.00 58 1013.6
20260509133032 64 256 6.0 14.0 0.00 0.00 0.00 57 1013.6
20260509132512 64 128 4.0 12.0 0.00 0.00 0.00 58 1013.7
20260509132014 64 207 2.0 6.0 0.00 0.00 0.00 59 1013.6
20260509131532 64 65 3.0 10.0 0.00 0.00 0.00 58 1013.7
20260509131012 65 57 2.0 11.0 0.00 0.00 0.00 58 1013.6
20260509130514 64 233 3.0 11.0 0.00 0.00 0.00 58 1013.7
20260509130049 64 289 3.0 8.0 0.00 0.00 0.00 59 1013.7
20260509125517 64 77 2.0 11.0 0.00 0.00 0.00 59 1013.7
20260509125014 64 251 1.0 11.0 0.00 0.00 0.00 62 1013.7
20260509124537 64 121 1.0 11.0 0.00 0.00 0.00 61 1013.8
20260509124015 64 157 2.0 12.0 0.00 0.00 0.00 59 1013.8
20260509123514 64 136 5.0 12.0 0.00 0.00 0.00 58 1013.9
20260509123029 63 180 3.0 11.0 0.00 0.00 0.00 61 1013.8
20260509122512 64 229 2.0 13.0 0.00 0.00 0.00 59 1013.9
20260509122013 64 76 2.0 13.0 0.00 0.00 0.00 59 1013.8
20260509121529 64 271 3.0 12.0 0.00 0.00 0.00 59 1013.8
20260509121013 64 98 4.0 12.0 0.00 0.00 0.00 60 1013.8
20260509120514 65 97 3.0 12.0 0.00 0.00 0.00 58 1013.8
20260509120033 65 233 5.0 12.0 0.00 0.00 0.00 59 1014.0
20260509115515 64 168 1.0 11.0 0.00 0.00 0.00 61 1014.1
20260509115014 64 167 3.0 11.0 0.00 0.00 0.00 61 1014.3
20260509114531 64 224 2.0 12.0 0.00 0.00 0.00 61 1014.4
20260509114013 64 138 2.0 12.0 0.00 0.00 0.00 61 1014.4
20260509113516 65 120 2.0 6.0 0.00 0.00 0.00 59 1014.5
20260509113029 64 340 2.0 8.0 0.00 0.00 0.00 59 1014.5
20260509112514 64 219 2.0 17.0 0.00 0.00 0.00 61 1014.6
20260509112016 64 181 4.0 17.0 0.00 0.00 0.00 61 1014.6
20260509111528 64 215 7.0 17.0 0.00 0.00 0.00 60 1014.6
20260509111014 65 210 3.0 13.0 0.00 0.00 0.00 60 1014.7
20260509110516 65 101 4.0 13.0 0.00 0.00 0.00 63 1014.6
20260509110027 65 256 3.0 9.0 0.00 0.00 0.00 62 1014.6
20260509105513 64 211 3.0 12.0 0.00 0.00 0.00 63 1014.7
20260509105014 63 63 5.0 12.0 0.00 0.00 0.00 63 1014.6
20260509104528 63 201 5.0 12.0 0.00 0.00 0.00 62 1014.5
20260509104013 63 164 5.0 11.0 0.00 0.00 0.00 61 1014.5
20260509103514 64 150 2.0 10.0 0.00 0.00 0.00 62 1014.6
20260509103027 63 330 2.0 11.0 0.00 0.00 0.00 63 1014.6
20260509102514 63 184 3.0 11.0 0.00 0.00 0.00 62 1014.7
20260509102011 63 193 2.0 10.0 0.00 0.00 0.00 64 1014.6
20260509101534 63 140 2.0 10.0 0.00 0.00 0.00 63 1014.6
20260509101014 64 154 2.0 10.0 0.00 0.00 0.00 65 1014.5
20260509100513 63 119 1.0 9.0 0.00 0.00 0.00 66 1014.5
20260509100029 62 136 4.0 9.0 0.00 0.00 0.00 64 1014.5
20260509095513 63 172 2.0 11.0 0.00 0.00 0.00 64 1014.5
20260509095018 62 223 2.0 11.0 0.00 0.00 0.00 64 1014.6
20260509094528 62 234 4.0 11.0 0.00 0.00 0.00 64 1014.6
20260509094014 62 207 1.0 4.0 0.00 0.00 0.00 67 1014.7
20260509093513 61 309 1.0 8.0 0.00 0.00 0.00 68 1014.9
20260509093031 61 245 1.0 10.0 0.00 0.00 0.00 69 1014.8
20260509092520 61 111 2.0 11.0 0.00 0.00 0.00 69 1014.8
20260509092010 60 272 3.0 16.0 0.00 0.00 0.00 69 1014.7
20260509091532 60 292 6.0 16.0 0.00 0.00 0.00 69 1014.7
20260509091014 60 59 5.0 14.0 0.00 0.00 0.00 68 1014.7
20260509090513 60 207 4.0 13.0 0.00 0.00 0.00 68 1014.7
20260509090030 60 236 5.0 13.0 0.00 0.00 0.00 69 1014.6
20260509085513 60 153 2.0 11.0 0.00 0.00 0.00 72 1014.7
20260509085013 60 233 3.0 11.0 0.00 0.00 0.00 69 1014.9
20260509084535 60 156 3.0 9.0 0.00 0.00 0.00 69 1014.9
20260509084020 61 38 2.0 8.0 0.00 0.00 0.00 69 1014.9
20260509083513 60 242 1.0 10.0 0.00 0.00 0.00 71 1015.1
20260509083037 60 278 3.0 10.0 0.00 0.00 0.00 71 1015.1
20260509082515 60 302 2.0 9.0 0.00 0.00 0.00 71 1015.1
20260509082013 60 153 2.0 7.0 0.00 0.00 0.00 72 1015.2
20260509081530 60 173 3.0 8.0 0.00 0.00 0.00 70 1015.2
20260509081013 60 40 1.0 8.0 0.00 0.00 0.00 71 1015.2
20260509080511 60 161 1.0 9.0 0.00 0.00 0.00 72 1015.3
20260509080036 60 189 2.0 9.0 0.00 0.00 0.00 71 1015.3
20260509075515 59 234 1.0 9.0 0.00 0.00 0.00 74 1015.3
20260509075014 59 214 1.0 9.0 0.00 0.00 0.00 76 1015.3
20260509074528 58 338 2.0 9.0 0.00 0.00 0.00 75 1015.4
20260509074012 58 173 3.0 11.0 0.00 0.00 0.00 74 1015.4
20260509073513 58 192 4.0 11.0 0.00 0.00 0.00 75 1015.3
20260509073028 58 223 3.0 9.0 0.00 0.00 0.00 74 1015.2
20260509072511 58 190 2.0 5.0 0.00 0.00 0.00 75 1015.3
20260509072010 58 30 1.0 7.0 0.00 0.00 0.00 76 1015.2
20260509071530 57 208 1.0 9.0 0.00 0.00 0.00 76 1015.2
20260509071010 57 191 3.0 12.0 0.00 0.00 0.00 76 1015.1
20260509070510 57 213 4.0 12.0 0.00 0.00 0.00 76 1015.2
20260509070028 57 279 1.0 8.0 0.00 0.00 0.00 77 1015.1
20260509065511 56 223 1.0 8.0 0.00 0.00 0.00 78 1015.1
20260509065011 56 273 2.0 6.0 0.00 0.00 0.00 78 1015.1
20260509064533 56 55 0.0 6.0 0.00 0.00 0.00 79 1015.0
20260509064016 56 177 2.0 6.0 0.00 0.00 0.00 79 1015.0
20260509063513 56 78 1.0 7.0 0.00 0.00 0.00 80 1015.0
20260509063030 55 107 3.0 7.0 0.00 0.00 0.00 79 1015.0
20260509062511 55 157 2.0 7.0 0.00 0.00 0.00 80 1015.0
20260509062018 55 176 2.0 10.0 0.00 0.00 0.00 81 1015.1
20260509061538 55 207 1.0 10.0 0.00 0.00 0.00 81 1015.1
20260509061019 54 173 2.0 8.0 0.00 0.00 0.00 82 1015.1
20260509060519 54 182 2.0 8.0 0.00 0.00 0.00 82 1015.1
20260509060036 54 140 1.0 5.0 0.00 0.00 0.00 83 1015.1
20260509055519 54 15 0.0 6.0 0.00 0.00 0.00 83 1015.0
20260509055019 54 230 1.0 6.0 0.00 0.00 0.00 83 1015.0
20260509054542 53 123 2.0 5.0 0.00 0.00 0.00 84 1015.1
20260509054018 53 216 0.0 5.0 0.00 0.00 0.00 85 1015.2
20260509053519 53 143 1.0 5.0 0.00 0.00 0.00 85 1015.2
20260509053037 53 238 1.0 5.0 0.00 0.00 0.00 85 1015.1
20260509052516 52 93 1.0 5.0 0.00 0.00 0.00 85 1015.0
20260509052018 52 208 1.0 4.0 0.00 0.00 0.00 86 1015.0
20260509051533 52 0 0.0 4.0 0.00 0.00 0.00 86 1015.0
20260509051018 52 96 1.0 4.0 0.00 0.00 0.00 86 1015.0
20260509050515 52 103 1.0 4.0 0.00 0.00 0.00 86 1014.9
20260509050054 51 240 0.0 4.0 0.00 0.00 0.00 86 1014.9
20260509045519 51 0 0.0 2.0 0.00 0.00 0.00 86 1014.8
20260509045019 51 0 0.0 2.0 0.00 0.00 0.00 86 1014.9
20260509044549 52 141 0.0 2.0 0.00 0.00 0.00 86 1014.9
20260509044018 51 192 0.0 2.0 0.00 0.00 0.00 86 1014.8
20260509043520 51 0 0.0 2.0 0.00 0.00 0.00 86 1014.9
20260509043039 51 0 0.0 3.0 0.00 0.00 0.00 86 1014.8
20260509042519 51 246 0.0 4.0 0.00 0.00 0.00 86 1014.9
20260509042022 51 232 0.0 4.0 0.00 0.00 0.00 86 1014.8
20260509041535 51 256 0.0 1.0 0.00 0.00 0.00 85 1014.9
20260509041019 52 225 0.0 2.0 0.00 0.00 0.00 85 1014.8
20260509040518 52 146 0.0 3.0 0.00 0.00 0.00 85 1014.9
20260509040035 52 200 1.0 3.0 0.00 0.00 0.00 85 1014.9
20260509035518 52 0 0.0 3.0 0.00 0.00 0.00 84 1014.8
20260509035021 52 276 0.0 3.0 0.00 0.00 0.00 84 1014.8
20260509034533 52 116 1.0 5.0 0.00 0.00 0.00 84 1014.9
20260509034018 52 82 0.0 5.0 0.00 0.00 0.00 84 1015.0
20260509033519 52 106 1.0 6.0 0.00 0.00 0.00 84 1015.0
20260509033040 52 88 2.0 6.0 0.00 0.00 0.00 84 1014.9
20260509032519 52 78 1.0 3.0 0.00 0.00 0.00 84 1014.9
20260509032041 52 105 1.0 3.0 0.00 0.00 0.00 84 1014.9
20260509031531 52 151 1.0 3.0 0.00 0.00 0.00 83 1015.0
20260509031011 52 86 1.0 3.0 0.00 0.00 0.00 83 1014.9
20260509030511 52 222 1.0 3.0 0.00 0.00 0.00 83 1015.0
20260509030036 53 106 1.0 6.0 0.00 0.00 0.00 82 1014.9
20260509025513 53 188 2.0 6.0 0.00 0.00 0.00 82 1014.8
20260509025014 53 161 2.0 5.0 0.00 0.00 0.00 81 1014.9
20260509024530 53 153 2.0 5.0 0.00 0.00 0.00 81 1014.9
20260509024013 53 136 2.0 5.0 0.00 0.00 0.00 81 1015.0
20260509023512 53 238 2.0 5.0 0.00 0.00 0.00 81 1015.0
20260509023037 53 178 1.0 7.0 0.00 0.00 0.00 81 1015.0
20260509022515 53 119 1.0 8.0 0.00 0.00 0.00 82 1015.1
20260509022009 53 263 2.0 8.0 0.00 0.00 0.00 82 1015.1
20260509021528 53 85 2.0 8.0 0.00 0.00 0.00 82 1015.0
20260509021009 53 153 1.0 8.0 0.00 0.00 0.00 82 1015.0
20260509020520 52 213 2.0 6.0 0.00 0.00 0.00 82 1015.0
20260509020028 52 211 1.0 7.0 0.00 0.00 0.00 82 1015.0
20260509015510 52 239 1.0 8.0 0.00 0.00 0.00 81 1015.0
20260509015012 52 220 4.0 8.0 0.00 0.00 0.00 81 1015.0
20260509014528 52 211 1.0 6.0 0.00 0.00 0.00 81 1015.0
20260509014011 52 115 1.0 6.0 0.00 0.00 0.00 81 1014.9
20260509013513 52 119 2.0 6.0 0.00 0.00 0.00 80 1014.9
20260509013031 52 43 1.0 6.0 0.00 0.00 0.00 80 1015.0
20260509012510 52 280 1.0 6.0 0.00 0.00 0.00 79 1015.0
20260509012013 52 217 3.0 6.0 0.00 0.00 0.00 78 1015.1
20260509011531 52 77 2.0 5.0 0.00 0.00 0.00 77 1015.2
20260509011014 52 235 2.0 5.0 0.00 0.00 0.00 77 1015.1
20260509010515 52 184 1.0 4.0 0.00 0.00 0.00 78 1015.2
20260509010029 52 284 1.0 3.0 0.00 0.00 0.00 77 1015.2